Theta_e
318 319 322 324 326 327 326 326 324 322 325 324 318 322 319 317 319 317 318 316 315 314 313 314 314 315 316 318 318 316 315 318 321 323 325 318 316 320 319 319 321 324 326 327 328 327 325 322 318 317 321 323 324 324 325 329 332 331 332 332 332 331 331 332 331 330 330 329 328 328 330 330 332 333 333 334 335 334 334 334 332 332 333 333 333 331 330 330 329 329 330 331 332 331 330 327 324
317 320 324 325 326 328 326 324 329 330 330 321 316 320 317 317 318 318 321 317 315 313 313 315 314 314 314 314 314 315 317 316 316 318 318 316 317 318 317 318 317 318 319 321 322 321 320 319 316 314 317 321 322 323 323 327 331 332 333 333 332 333 333 333 332 331 330 329 326 324 325 326 329 332 332 332 334 332 333 335 334 334 333 333 333 331 331 331 330 330 329 330 330 330 331 331 330
318 321 322 323 326 325 328 325 328 335 330 321 321 324 318 317 318 317 317 314 313 312 313 313 313 313 312 313 314 315 317 316 316 316 316 317 317 316 317 317 316 316 316 316 316 316 316 316 315 313 313 317 320 322 323 324 327 329 331 332 333 333 333 333 333 333 332 330 329 328 327 325 326 329 331 332 333 332 333 334 333 333 332 332 331 330 330 330 329 329 330 329 329 328 328 329 331
320 323 322 324 325 324 338 335 332 337 327 321 323 324 322 320 318 315 312 312 313 313 313 312 313 312 312 315 313 314 315 315 316 315 315 315 315 316 315 315 316 315 315 315 314 314 314 314 315 314 313 313 316 319 321 323 325 325 326 329 332 333 332 332 333 334 333 333 332 332 331 330 328 329 330 332 334 334 334 333 331 331 332 331 330 329 329 328 328 328 328 328 328 327 327 328 328
320 322 322 325 326 323 334 330 327 331 323 325 321 319 330 327 319 314 311 312 312 312 313 313 313 312 312 313 311 313 314 314 314 314 314 313 314 314 313 313 313 313 314 313 313 313 313 313 313 313 313 313 314 315 317 320 323 324 325 325 328 331 332 332 332 333 333 333 333 333 332 332 331 329 329 330 332 333 333 332 331 331 331 330 330 330 329 328 327 327 327 326 326 325 327 328 327
321 323 321 323 323 317 323 321 321 323 319 326 320 317 329 324 315 312 311 312 312 312 313 312 314 312 310 311 311 313 313 313 313 313 312 311 311 311 311 311 311 311 312 311 311 311 311 311 311 311 311 311 312 312 313 315 318 320 322 324 325 327 329 331 331 331 331 332 331 331 331 331 331 330 328 328 328 329 330 331 331 332 331 330 328 328 328 328 328 329 329 327 326 325 327 328 327
320 323 321 321 321 317 326 326 322 323 317 316 317 318 319 314 311 311 312 313 313 312 313 312 312 313 312 310 311 312 312 313 312 311 311 310 309 309 309 309 309 309 309 309 309 309 309 309 309 309 309 309 310 310 310 311 313 314 316 319 321 324 326 328 329 330 330 330 330 330 330 330 330 330 329 328 327 328 329 329 330 330 330 328 325 325 325 326 326 327 327 327 326 326 327 328 327
320 321 320 325 328 325 331 327 321 323 316 311 313 315 313 311 311 312 313 312 313 312 312 312 311 315 314 309 310 311 311 311 311 310 310 309 308 308 308 308 308 308 308 307 307 307 307 308 308 308 308 308 308 308 308 308 309 310 311 312 314 317 320 323 326 328 329 329 329 329 329 330 330 330 330 330 330 330 330 330 329 329 327 326 327 328 328 327 326 326 326 325 325 325 325 327 328
319 321 319 325 332 331 330 321 317 318 317 315 313 313 312 312 312 312 313 312 312 311 311 311 311 314 312 308 309 310 310 310 310 310 309 308 308 307 307 307 307 307 307 306 306 306 306 307 306 307 307 307 307 307 307 307 307 307 308 308 309 310 311 314 317 320 323 325 327 328 328 330 330 330 330 330 331 331 331 330 330 330 328 327 327 329 328 327 329 330 329 326 324 324 324 324 327
318 321 318 324 330 328 323 318 319 319 316 315 313 313 312 312 313 311 313 313 312 311 311 311 310 311 310 308 308 308 309 309 309 309 308 308 308 307 307 306 306 306 306 306 306 306 306 306 306 306 306 306 306 305 305 305 305 305 306 306 307 307 307 308 309 311 313 316 319 322 324 326 328 328 329 329 330 330 331 331 331 331 330 329 327 327 325 324 326 328 328 326 324 324 323 323 325
318 319 318 328 332 324 323 321 322 321 317 316 313 313 312 311 313 311 311 313 311 311 310 311 310 308 308 307 307 308 308 308 309 308 308 307 307 307 307 306 306 305 305 306 305 306 306 306 306 306 306 305 304 304 303 303 303 303 304 304 305 305 306 306 307 307 308 309 311 313 316 318 321 323 325 327 328 329 330 330 330 330 330 330 329 327 326 326 326 326 326 326 326 326 324 324 325
318 320 330 337 330 324 326 324 320 322 324 321 315 312 312 310 313 312 311 312 310 310 310 311 311 309 308 306 307 308 307 308 308 308 307 307 307 307 307 306 305 305 305 305 305 305 305 306 306 305 305 304 303 303 302 302 302 302 302 302 302 303 304 304 305 305 306 307 307 308 309 310 312 314 317 320 323 324 326 327 328 329 330 330 330 330 328 329 329 327 327 327 327 326 324 324 323
317 321 341 335 320 322 323 321 319 322 325 320 313 311 312 310 312 312 311 311 310 311 311 310 310 310 309 306 307 307 306 307 307 307 307 307 306 306 306 305 305 305 305 305 305 305 305 306 306 305 305 304 303 303 302 302 302 302 302 301 302 302 302 302 303 303 304 305 305 306 307 307 308 309 310 312 316 318 320 322 324 325 327 328 329 330 329 329 329 329 328 328 327 325 325 325 325
317 318 337 328 315 321 321 320 318 319 322 319 313 311 312 310 311 311 311 313 310 310 311 310 310 310 309 306 306 307 306 307 306 307 306 306 306 305 305 304 304 304 304 304 305 305 305 306 306 305 304 303 303 302 301 301 301 301 301 301 301 301 301 301 301 301 302 302 303 304 304 305 306 306 307 308 309 312 315 318 320 321 322 324 325 327 328 328 328 329 329 328 327 325 325 326 326
317 315 331 329 318 320 319 319 320 321 323 320 313 311 311 310 310 310 311 314 311 309 310 309 309 311 311 309 309 308 307 307 306 306 306 306 305 304 304 304 304 304 304 304 305 305 305 306 305 304 303 303 302 301 301 301 301 301 301 302 301 301 301 301 301 301 301 301 301 301 302 302 302 303 304 305 306 307 309 312 315 317 319 320 320 321 323 325 326 327 328 327 326 325 325 326 327
318 318 333 333 320 319 317 317 319 322 321 316 312 311 311 309 309 310 310 311 310 308 309 309 309 310 309 309 311 310 308 306 306 306 305 305 304 304 303 303 304 304 304 304 304 305 305 305 304 303 302 302 301 301 301 301 302 301 301 301 301 301 301 301 301 301 301 301 300 300 300 301 301 301 301 302 303 304 305 306 308 311 313 316 318 318 319 320 321 322 323 323 323 322 324 326 327
317 323 338 334 322 321 318 318 318 321 322 314 309 311 313 310 308 309 309 310 309 308 308 308 308 308 308 308 310 309 307 306 306 305 305 304 303 303 303 303 304 304 304 304 304 304 304 304 303 302 301 301 301 301 301 301 301 301 301 301 301 301 301 301 301 301 301 301 301 300 301 300 300 300 301 301 301 301 302 303 304 305 307 309 312 315 317 318 319 319 319 320 319 318 320 323 325
319 331 334 323 322 322 319 320 315 316 321 313 308 310 313 313 308 307 309 308 307 307 307 308 308 307 308 308 308 308 307 306 305 305 304 303 303 303 303 303 304 304 304 304 304 304 304 303 302 301 301 301 301 301 301 301 301 301 301 301 301 301 301 301 301 301 301 301 301 301 301 300 300 300 300 300 300 300 300 301 301 302 303 304 305 307 310 313 316 319 319 320 320 319 318 320 323
319 330 327 319 325 321 313 315 311 312 316 311 309 310 310 313 309 308 310 307 304 306 306 305 306 306 307 307 307 307 306 305 305 304 303 303 302 302 303 303 304 304 304 304 304 303 303 302 301 301 301 301 301 301 301 301 301 301 301 301 300 300 300 300 300 300 300 300 300 300 300 300 300 300 300 300 300 300 300 300 300 300 300 301 302 302 304 306 309 314 318 320 322 322 322 321 322
315 320 322 322 324 317 310 312 312 312 312 310 310 309 309 310 309 308 309 306 303 306 307 304 304 307 307 307 306 306 305 305 304 303 302 302 302 302 302 303 303 303 303 303 303 302 302 301 301 301 301 301 300 300 300 300 300 300 300 300 300 300 300 300 300 300 300 300 300 300 300 300 300 300 299 299 299 299 299 299 299 299 299 300 300 300 301 302 303 306 311 316 320 323 323 323 323
314 317 321 318 314 314 314 312 312 312 311 311 310 310 309 309 309 308 307 308 307 305 308 309 309 310 308 307 307 306 305 304 303 302 302 301 302 302 302 303 303 303 303 303 302 302 301 301 301 301 301 301 300 300 300 300 300 300 300 300 300 300 300 300 299 299 300 300 300 300 300 300 299 299 299 299 299 298 298 298 298 298 298 299 299 299 299 300 300 302 304 307 313 319 322 324 324
314 313 313 312 310 313 315 312 313 313 312 311 309 310 312 309 308 308 307 312 312 308 310 312 311 311 310 309 307 305 304 303 302 301 301 301 302 302 302 303 303 302 302 302 301 301 300 300 300 300 300 300 299 299 299 300 299 299 299 299 299 299 299 299 299 299 299 299 299 299 299 299 299 299 298 298 298 298 298 298 298 297 297 297 297 298 299 299 299 300 300 301 304 309 315 321 323
315 312 309 310 311 312 313 313 314 313 312 311 309 311 311 308 309 308 307 310 312 311 312 311 310 310 309 309 307 305 304 302 302 301 301 301 302 302 302 302 302 302 302 301 300 300 300 300 300 299 299 299 299 299 299 299 298 298 298 298 298 298 298 298 298 298 298 298 298 298 298 298 298 298 297 297 297 297 297 297 297 297 296 297 296 297 297 298 298 298 299 299 300 302 306 312 318
315 314 310 311 310 311 313 313 313 313 312 311 310 310 309 309 311 308 307 310 311 310 311 311 309 308 307 307 306 305 304 302 301 301 301 301 302 302 302 302 301 301 300 300 299 299 299 299 299 298 298 298 298 298 298 298 298 297 297 297 297 297 298 298 298 298 298 298 298 298 297 297 297 297 297 296 296 296 296 296 296 296 296 296 296 296 296 297 297 297 298 298 298 299 300 303 308
315 314 310 311 311 312 313 312 313 312 312 310 309 309 308 309 308 305 307 311 311 309 310 310 309 307 306 306 305 305 303 302 301 301 301 301 302 302 301 301 301 300 299 298 298 298 298 298 298 297 297 297 297 297 297 297 297 297 297 297 297 297 297 297 297 297 297 297 297 297 297 297 297 297 296 296 296 296 296 296 296 296 296 296 296 296 296 296 296 297 297 297 298 298 298 299 300
312 312 311 310 311 312 312 311 312 311 311 309 308 308 308 307 306 306 308 310 309 309 308 309 309 307 306 305 305 304 302 301 301 301 301 301 301 301 301 300 300 299 298 297 297 297 297 297 297 297 297 296 296 297 297 297 297 296 296 296 296 296 296 297 297 297 297 297 297 297 297 296 296 296 296 296 296 296 296 296 295 296 296 296 296 296 296 296 296 296 296 297 297 297 297 298 298
310 310 310 310 310 310 310 310 310 310 309 308 309 309 307 305 306 309 309 308 308 308 307 307 307 306 306 305 304 303 302 301 301 301 301 301 301 300 300 299 299 298 297 297 297 297 297 297 297 296 296 296 296 296 296 296 296 296 296 296 296 296 296 296 296 296 296 297 297 297 297 296 296 296 295 296 295 295 295 295 295 295 295 295 295 296 296 296 296 296 296 296 296 297 297 297 297
309 308 310 308 307 308 308 309 308 309 310 308 308 309 307 304 307 310 308 307 308 307 307 306 305 305 305 304 303 302 301 300 300 300 301 300 300 299 299 298 298 297 297 296 296 296 296 296 296 296 296 296 296 296 296 296 296 295 296 295 295 295 295 295 295 296 296 296 296 296 296 296 296 295 295 295 295 295 295 295 295 295 295 295 295 295 295 295 296 296 296 296 296 296 297 297 297
309 309 312 313 313 312 308 308 308 307 311 308 307 311 310 308 309 309 307 307 306 305 305 305 304 304 303 303 302 301 300 299 299 300 300 299 299 298 298 297 297 296 296 296 295 295 295 295 295 295 295 295 295 295 295 295 295 295 295 295 295 295 295 295 295 295 295 296 296 296 296 295 295 295 295 295 295 295 294 294 294 294 294 294 295 295 295 295 295 295 296 296 296 296 296 297 297
310 308 311 317 322 320 308 306 308 307 310 308 308 314 315 313 310 307 306 306 304 303 303 304 303 302 302 302 301 301 300 299 299 299 299 298 297 297 297 296 296 296 295 295 295 294 295 295 295 295 294 294 294 294 294 294 294 294 294 294 294 294 294 294 294 294 295 295 295 295 295 295 295 295 295 295 294 294 294 294 294 294 294 294 294 294 295 295 295 295 295 295 296 296 296 296 297
313 309 315 320 320 324 314 306 308 309 310 308 309 314 315 315 311 307 306 305 304 303 303 303 302 302 301 301 301 300 299 299 299 299 298 298 297 296 296 296 295 295 295 294 294 294 294 294 294 293 293 293 293 293 293 293 293 293 293 293 294 294 294 294 293 294 294 294 295 295 295 295 295 294 294 294 294 294 294 294 294 294 294 294 294 294 294 294 294 294 294 295 295 296 296 296 296
318 313 323 325 316 325 321 305 305 310 310 306 309 315 314 313 310 307 306 304 304 303 303 303 302 301 301 301 300 300 299 298 298 298 297 297 296 295 295 295 295 294 294 294 294 294 293 293 293 293 293 293 293 293 293 293 293 293 293 293 293 293 293 293 293 293 294 294 295 295 295 294 294 294 294 294 294 294 294 294 294 294 294 294 294 294 294 294 294 294 294 294 294 295 295 296 296
324 316 321 327 318 319 318 307 303 306 309 308 309 314 314 312 307 305 305 303 303 301 301 302 301 301 301 300 300 299 299 298 297 298 297 295 295 294 294 294 294 294 294 293 293 293 292 292 292 292 292 292 292 293 293 292 292 292 292 292 292 293 293 293 293 293 293 293 294 295 294 294 294 293 293 293 293 293 293 294 293 293 293 293 293 293 293 293 294 294 294 294 293 294 294 295 295
329 318 317 322 317 313 315 313 306 303 309 310 309 310 311 311 307 304 304 303 301 299 299 302 301 300 300 300 299 299 299 298 298 298 297 295 294 294 294 294 294 294 293 293 292 292 292 292 292 292 292 292 292 293 293 292 292 292 292 292 292 292 292 292 293 293 293 293 293 294 294 293 293 293 293 293 293 293 293 293 293 293 293 293 293 293 293 293 293 293 294 294 293 293 294 294 294
323 320 318 317 315 311 312 314 308 305 309 310 310 310 309 309 308 305 305 303 301 299 300 301 300 299 299 299 299 299 299 298 299 298 297 295 294 294 294 294 294 294 293 292 292 292 291 292 292 292 292 292 293 293 292 292 292 292 292 292 292 292 292 292 292 292 292 292 293 294 293 293 292 292 292 292 292 292 292 292 292 292 292 292 292 293 293 293 293 293 293 293 293 292 293 293 293
317 317 317 315 313 311 310 311 307 304 307 308 307 308 308 308 308 306 305 303 300 299 299 299 298 298 298 298 298 299 299 299 299 298 296 295 294 294 294 294 294 294 293 292 292 291 291 292 292 292 292 292 292 292 292 292 292 292 292 292 292 291 292 292 292 292 292 292 292 293 293 292 292 292 292 292 292 292 292 292 292 292 292 292 292 292 292 293 293 293 293 292 292 292 292 292 292
311 313 313 312 311 309 309 309 306 302 306 310 307 306 307 306 307 306 305 302 299 296 296 297 297 297 297 298 298 299 299 299 299 297 295 294 294 293 293 293 293 293 293 292 291 291 291 292 292 292 292 292 292 292 291 291 291 292 292 292 292 291 291 291 291 292 292 292 292 292 292 292 292 292 291 291 291 291 291 291 291 291 291 292 292 292 292 292 292 292 292 292 292 292 292 291 291
308 310 310 310 310 310 308 306 306 304 305 310 310 308 307 306 307 307 306 304 301 298 297 297 298 298 298 298 298 298 298 298 298 297 295 294 293 293 293 293 293 293 293 292 291 291 291 292 292 292 291 292 292 292 291 291 291 291 291 291 291 291 291 291 291 291 292 292 292 292 292 292 292 291 291 291 291 291 291 291 291 291 291 291 291 291 291 291 291 291 292 292 292 291 292 291 290
310 310 309 311 310 311 311 307 307 306 305 310 311 308 307 307 306 306 306 306 304 302 302 302 301 299 299 299 298 298 297 297 297 297 295 294 293 293 293 293 293 293 292 292 291 291 291 291 291 291 291 291 291 291 291 291 290 290 290 290 290 290 290 290 291 291 291 291 291 291 291 291 291 291 290 290 290 290 290 290 290 290 291 291 291 291 291 291 291 291 291 291 292 291 291 291 290
311 310 310 313 310 312 316 311 308 308 306 307 308 306 306 307 306 307 306 304 305 305 304 305 303 302 302 301 300 299 298 297 297 297 296 294 293 293 292 292 293 293 292 292 291 291 291 291 291 291 291 291 291 291 291 290 290 290 290 289 289 290 290 290 290 290 290 291 291 291 290 290 290 290 290 289 289 290 290 290 290 290 290 290 291 291 291 291 291 291 291 291 290 290 290 290 290
315 313 310 312 312 311 313 311 308 310 308 305 307 310 312 311 309 309 305 301 303 304 303 303 302 302 302 301 301 300 299 299 298 298 296 294 294 293 293 293 293 293 293 292 291 291 291 291 291 291 291 291 290 290 290 290 290 290 289 289 289 290 290 290 290 290 290 290 291 290 290 290 289 289 289 289 289 289 289 289 290 290 290 290 291 291 291 291 290 290 291 291 290 289 288 289 289
319 318 312 311 312 309 309 311 309 314 315 307 308 314 316 314 312 312 309 306 306 304 302 303 301 301 301 301 301 300 299 299 298 298 297 296 294 293 293 293 293 293 293 292 292 291 291 291 291 291 290 290 290 290 290 290 290 290 289 289 290 290 290 290 290 290 290 290 290 290 290 289 289 289 289 289 289 289 289 289 289 290 290 290 290 290 290 290 290 290 290 290 290 288 287 287 288
317 315 311 309 308 308 309 310 310 316 317 307 308 316 315 313 314 315 313 311 311 307 305 303 301 301 301 301 302 300 299 299 298 297 297 296 295 293 293 293 293 293 293 292 291 291 291 291 291 291 290 290 290 290 290 290 290 289 289 289 290 289 290 290 290 289 289 289 289 289 289 289 288 288 288 288 289 289 289 289 289 290 290 290 290 290 290 290 290 290 290 290 289 288 286 285 287
318 312 310 311 309 309 310 308 308 311 311 306 307 311 312 311 312 312 311 311 311 309 309 305 301 301 302 303 303 301 300 300 298 297 297 296 295 294 294 293 293 293 293 292 291 291 291 291 291 290 290 290 290 290 290 290 290 290 289 289 289 289 289 289 289 289 289 288 289 289 289 288 288 288 288 288 288 288 289 289 289 289 290 290 290 290 290 290 290 291 291 290 289 287 285 284 285
316 307 307 309 307 309 309 307 307 308 308 309 307 306 310 313 310 307 306 308 312 312 315 314 306 303 303 304 304 302 301 299 298 298 298 297 296 294 294 294 294 293 293 292 291 291 291 291 291 290 290 290 290 290 290 290 290 289 289 289 289 289 289 289 289 288 288 288 288 288 288 288 288 288 288 288 288 288 288 288 289 289 290 290 289 289 290 290 290 291 290 289 288 287 285 284 283
307 303 307 309 309 309 308 308 309 310 312 314 311 307 311 316 313 307 305 308 313 315 316 314 307 303 304 304 304 303 301 299 298 298 298 298 296 295 294 293 293 293 293 292 291 291 291 291 291 290 290 290 290 290 290 290 289 289 289 289 289 289 289 289 288 288 288 288 288 288 288 288 288 288 288 287 287 288 288 288 289 289 289 289 289 289 290 290 290 290 289 287 285 284 283 283 283
301 306 312 314 313 309 308 310 311 313 316 316 312 307 310 316 313 309 309 311 316 318 315 312 308 305 305 304 303 302 301 300 299 298 297 297 296 294 293 293 293 293 292 291 291 290 290 290 290 290 290 290 290 290 290 290 289 289 289 289 289 289 289 288 288 288 288 288 288 288 288 288 288 287 287 287 287 287 287 288 288 289 289 289 289 289 290 290 290 289 288 285 283 281 281 281 282
304 313 316 316 317 315 315 315 314 316 318 316 310 305 307 314 312 310 313 312 312 316 317 316 313 307 305 304 303 302 302 301 299 297 296 296 295 293 293 293 293 292 292 291 291 290 290 290 290 290 290 290 290 290 290 290 290 289 289 289 289 289 288 288 288 288 288 288 287 287 287 287 287 287 287 287 287 287 287 288 288 288 288 288 289 289 290 290 289 288 286 283 282 281 280 280 281
308 313 316 317 319 321 322 319 316 318 317 310 305 306 307 310 310 310 312 311 310 310 310 311 310 305 303 303 302 302 302 300 299 297 297 296 294 293 293 293 292 292 292 291 290 290 290 290 290 291 290 290 290 290 290 290 289 290 289 289 289 288 288 288 288 288 287 287 287 287 287 287 287 287 287 287 287 287 287 287 287 287 288 288 289 289 289 289 287 286 284 282 280 280 279 279 280
307 312 316 318 320 323 324 319 315 316 316 307 302 307 310 310 311 311 309 310 309 306 304 305 304 301 301 300 300 301 301 300 298 297 297 296 295 294 293 293 293 292 292 291 290 290 291 291 290 291 290 290 290 290 290 290 289 289 289 289 288 288 288 287 287 287 287 287 287 287 287 287 287 287 287 287 287 287 287 287 287 287 287 288 289 289 289 288 285 283 282 281 279 279 279 279 279
306 312 315 317 323 325 323 322 318 316 318 310 303 308 315 313 313 311 308 306 304 303 304 304 301 299 298 298 299 299 299 299 298 297 297 296 295 294 293 293 293 292 291 290 291 291 291 291 290 290 290 290 290 290 290 290 289 289 289 288 288 287 287 287 288 287 287 287 287 287 286 286 286 286 287 287 287 287 287 286 286 287 287 288 289 289 288 287 284 282 281 280 279 278 278 278 279
307 310 312 315 320 320 317 318 317 314 314 311 307 311 315 311 309 308 307 305 301 298 299 299 297 297 297 298 299 299 299 298 297 297 297 296 295 294 293 293 292 292 291 291 291 291 291 291 290 290 290 290 290 290 290 290 289 289 288 288 287 287 287 288 288 287 287 287 286 286 286 286 286 286 286 286 286 286 286 286 286 287 288 288 288 288 287 286 284 282 281 279 278 278 277 278 278
309 308 312 313 311 315 318 316 311 309 312 313 311 312 311 309 310 306 304 306 303 300 298 296 294 295 296 298 299 299 298 298 297 297 297 296 295 293 293 293 292 292 291 291 291 291 291 290 290 290 290 290 290 290 290 289 289 288 288 287 287 287 288 288 287 287 287 287 286 286 286 286 286 286 286 286 286 286 286 286 286 287 287 288 287 287 286 284 283 281 281 279 278 277 277 277 278
311 312 312 308 306 311 316 316 314 312 313 314 313 311 309 310 310 306 304 308 308 306 304 298 293 292 294 297 299 299 299 298 297 297 296 296 295 293 293 292 292 291 291 291 291 291 291 290 290 290 290 290 290 289 289 289 288 288 287 287 288 288 288 287 287 287 286 286 286 286 285 285 285 285 285 285 285 285 285 285 286 286 287 287 287 286 285 283 281 280 280 279 277 276 276 276 277
307 309 306 306 312 313 311 312 315 314 313 315 315 311 309 310 311 310 309 311 311 310 307 301 297 294 292 296 298 298 298 297 297 297 296 295 294 293 292 292 291 291 291 291 291 291 290 290 290 290 290 290 289 289 289 288 288 287 287 288 288 287 287 287 287 286 286 286 286 285 285 285 285 284 284 284 284 284 285 285 285 286 286 286 286 285 284 282 280 279 279 278 277 276 276 276 277
300 302 301 305 312 313 312 311 313 315 313 313 314 311 310 313 316 316 314 312 313 314 310 305 301 295 294 298 300 299 299 298 298 298 297 296 294 293 292 291 291 291 291 291 291 290 290 290 290 290 290 289 289 288 288 288 287 288 288 288 288 287 287 287 287 286 286 286 286 285 285 284 284 284 283 283 283 284 284 284 285 285 285 286 285 285 283 281 279 278 277 277 276 276 275 276 276
302 304 305 304 305 309 311 309 309 313 313 313 314 312 311 313 316 318 315 313 315 315 314 310 302 296 298 303 303 302 301 300 300 299 298 296 294 292 291 291 291 291 291 291 290 290 290 290 290 290 289 289 288 288 288 288 288 288 288 288 287 287 287 287 287 286 286 286 286 285 285 284 283 283 283 283 283 283 284 284 285 285 285 285 285 284 283 279 277 277 276 276 275 275 275 275 276
306 307 308 306 305 308 312 309 308 309 311 314 315 313 311 311 314 316 315 316 317 314 314 311 301 297 302 306 305 304 303 302 301 299 298 297 294 292 291 291 291 291 291 290 290 290 290 290 289 289 289 288 288 288 288 288 288 288 288 288 287 287 287 287 287 286 286 286 285 285 284 283 283 282 282 282 282 283 283 283 284 284 284 284 284 284 282 278 275 276 276 275 274 274 275 275 275
Wind_Speed
4 4 4 4 3 2 1 1 1 3 4 2 1 1 2 3 2 2 1 1 1 4 5 8 8 10 8 10 13 12 9 4 3 3 4 5 4 2 4 4 5 5 7 8 8 7 7 6 4 3 4 4 5 6 7 5 4 5 5 6 5 4 5 5 5 5 5 6 7 8 9 9 11 12 11 12 12 11 10 10 10 10 8 9 10 11 12 14 14 14 14 14 15 16 17 17 17
4 5 4 3 2 1 2 1 2 3 5 3 1 2 2 2 1 3 5 2 5 9 19 23 20 17 16 17 15 12 11 8 7 6 8 8 5 1 4 4 5 6 7 8 8 8 7 5 4 4 5 6 7 8 8 7 6 5 5 7 7 6 5 4 5 6 6 7 7 8 9 9 10 12 11 12 11 11 13 12 11 11 10 11 11 10 12 14 14 14 15 15 16 17 17 18 18
4 5 3 2 2 2 2 3 2 2 4 1 3 3 1 0 2 0 4 9 17 20 22 21 17 13 10 8 6 5 5 7 8 7 7 7 7 2 4 5 6 6 7 7 8 8 6 4 2 3 4 6 8 9 9 9 9 8 7 7 7 8 7 5 4 5 6 7 8 8 9 9 10 11 11 11 10 11 13 13 12 12 13 14 13 13 14 14 14 15 16 16 16 17 18 18 19
4 3 2 2 3 2 3 4 2 4 2 2 2 4 2 3 6 3 6 17 22 17 11 10 8 6 5 5 5 6 6 6 4 5 5 6 6 3 4 5 6 6 7 8 8 8 7 6 4 3 3 5 7 9 10 11 11 11 11 10 9 10 10 8 7 5 5 6 7 8 9 10 10 10 11 11 11 12 12 12 12 13 14 14 14 14 15 15 16 16 17 17 17 18 19 19 20
2 2 1 2 2 1 3 3 2 4 2 4 2 3 5 5 7 5 8 16 14 6 4 7 5 5 8 7 4 5 7 8 5 5 6 6 4 2 2 3 4 6 7 8 8 7 7 6 6 5 3 2 4 7 9 10 12 12 12 12 12 12 12 11 11 9 9 9 8 9 10 10 10 11 12 12 13 13 12 13 13 13 14 15 16 16 16 16 16 17 18 18 18 19 20 19 20
1 2 3 3 3 2 3 2 2 2 4 4 2 4 5 6 8 9 9 11 9 6 6 6 7 9 7 6 5 8 11 9 8 7 7 6 4 2 1 2 4 5 6 5 5 5 5 5 6 5 5 4 2 2 4 7 10 11 12 13 13 13 13 13 13 13 13 13 12 12 13 13 13 13 14 14 14 14 14 15 14 14 14 15 16 16 16 16 17 18 18 19 19 20 20 20 20
1 1 3 5 4 3 3 3 3 2 2 4 1 3 5 5 12 14 9 7 5 6 7 6 13 12 5 6 6 8 11 9 11 9 7 7 5 3 1 1 2 3 2 2 3 3 4 5 5 6 5 5 5 5 3 2 4 7 9 11 12 13 14 15 15 15 15 15 16 16 15 15 16 16 16 16 16 17 16 16 16 16 16 16 16 16 17 17 19 19 20 20 20 20 20 21 22
0 1 2 3 3 4 4 3 2 2 1 3 3 4 3 5 14 12 5 5 5 6 9 13 13 6 3 8 5 9 12 10 12 10 8 7 5 4 2 2 2 3 2 3 4 5 5 5 5 6 6 6 6 6 6 6 5 4 4 6 8 10 13 15 16 17 17 17 17 17 17 16 17 18 18 17 18 18 18 18 19 19 18 17 17 17 17 18 19 19 21 21 21 21 21 22 22
1 0 2 3 2 3 3 2 1 2 3 4 4 4 1 6 14 8 3 4 5 11 16 15 5 0 8 9 7 13 13 12 13 10 9 7 6 5 4 4 4 4 5 5 5 5 5 5 5 5 6 6 6 7 7 7 7 7 6 6 6 6 8 10 13 16 18 19 20 19 19 18 18 19 19 19 19 20 19 20 20 21 21 20 20 19 19 19 19 19 20 21 21 21 22 22 23
1 1 2 3 3 3 2 1 1 2 4 4 5 4 3 10 14 8 7 5 8 15 16 10 2 6 14 11 10 14 15 15 14 11 10 8 7 6 6 7 6 6 6 6 5 5 4 4 4 4 4 5 6 7 7 8 8 8 9 8 8 8 8 8 9 11 13 15 18 20 21 21 21 21 21 22 21 21 21 22 22 22 22 21 22 22 21 21 21 21 20 21 23 22 21 22 23
1 2 3 4 4 2 2 3 3 3 4 4 5 4 3 11 12 7 7 7 11 13 12 8 3 14 15 9 12 15 17 16 14 12 10 9 7 7 8 8 8 7 6 6 5 4 3 3 2 3 3 4 5 7 8 8 9 9 10 10 10 10 10 11 10 10 11 12 13 16 18 20 22 23 23 24 24 23 23 24 24 24 24 23 24 23 23 22 23 23 22 23 23 23 23 22 23
2 1 3 4 3 3 3 4 3 5 5 4 2 2 3 12 10 7 8 8 12 10 10 9 7 16 10 5 13 17 19 17 15 14 11 10 9 8 10 9 9 8 7 6 5 4 2 1 1 2 3 4 5 7 8 9 10 10 10 11 11 11 12 12 13 13 13 13 13 13 15 17 19 21 22 24 25 26 26 26 26 26 26 25 25 25 25 24 24 24 24 25 24 24 24 23 23
3 2 5 3 2 2 3 4 3 3 4 3 4 3 5 11 7 11 14 10 12 10 8 10 12 16 6 4 12 20 22 19 17 14 13 11 10 11 11 10 10 10 9 7 6 4 3 1 2 3 4 5 6 7 8 9 9 10 10 11 11 12 12 13 13 14 15 15 15 15 15 16 17 18 20 21 24 26 27 28 28 28 28 27 27 26 27 27 26 26 26 26 26 26 25 24 24
4 5 5 3 1 2 4 3 2 2 3 5 5 5 7 8 6 13 15 9 11 10 7 11 16 12 5 6 11 24 25 20 20 16 15 13 12 13 11 12 11 11 9 8 7 5 5 3 4 5 5 6 7 8 9 8 8 9 10 10 11 12 12 13 14 14 15 16 17 17 18 18 18 18 19 20 21 23 25 26 27 28 29 29 29 28 28 28 28 28 29 29 29 28 27 26 25
4 5 5 4 2 0 4 2 3 5 5 5 6 8 8 6 7 13 12 7 9 10 8 13 18 8 5 10 12 26 28 21 22 18 16 14 13 14 13 14 12 12 10 9 8 6 5 4 5 5 6 6 8 9 9 9 10 10 11 11 12 12 13 13 14 15 15 16 16 17 18 19 20 20 20 21 21 22 23 24 26 27 28 29 30 30 30 30 30 30 30 30 31 31 30 29 29
3 4 5 3 2 2 4 3 3 3 5 5 7 10 7 5 9 11 9 7 8 11 11 13 20 10 5 13 13 20 27 23 23 19 17 15 14 15 14 15 13 12 10 9 8 6 5 5 5 5 5 5 8 9 9 10 12 13 13 14 15 15 15 15 15 15 15 15 16 17 18 19 20 21 21 22 23 23 23 24 25 26 27 28 29 31 31 32 32 33 33 33 33 33 33 33 32
2 3 5 2 2 3 4 5 4 4 5 4 8 13 7 3 8 9 8 9 9 14 15 13 21 17 9 13 13 18 27 24 23 20 18 16 16 16 16 15 13 12 10 9 8 7 6 5 5 5 4 6 8 8 9 10 12 13 14 16 16 17 17 17 17 16 16 15 16 16 17 18 19 20 21 22 23 24 25 25 26 26 27 28 29 30 31 32 33 34 34 34 35 35 35 36 35
2 2 4 1 3 4 5 7 7 4 3 6 11 14 8 4 9 9 5 7 9 13 16 14 17 19 14 13 14 21 26 24 23 21 19 18 18 18 17 16 14 13 11 10 9 8 8 7 6 6 5 6 8 8 9 10 12 13 14 15 16 17 18 19 19 19 19 18 18 17 17 17 18 19 20 21 22 23 24 26 27 28 28 29 29 30 31 31 33 34 34 34 34 34 35 37 37
3 3 3 1 5 4 4 6 7 2 1 8 11 11 10 6 10 13 6 6 9 9 12 13 14 17 16 17 18 23 26 24 23 21 20 20 19 19 18 17 15 14 12 11 10 10 8 7 7 6 6 7 9 9 9 10 11 12 13 14 15 16 17 19 20 21 21 21 21 21 20 19 19 19 19 20 20 21 22 23 25 27 28 29 30 30 31 31 32 33 34 34 33 32 32 34 36
1 3 3 4 6 3 4 4 7 4 0 6 7 7 8 7 10 13 7 5 7 9 13 14 16 21 21 21 23 25 26 24 23 21 21 21 21 21 19 18 16 14 13 12 11 10 9 8 8 8 7 8 9 9 9 9 10 11 12 13 14 15 17 18 19 21 22 23 23 23 23 22 22 21 20 20 20 21 21 22 22 24 26 28 30 31 31 31 32 33 33 34 35 34 32 32 34
0 4 3 5 4 1 5 5 4 5 3 3 5 4 5 7 11 13 9 5 5 14 23 24 23 25 25 26 27 27 27 25 24 23 23 23 23 22 21 19 17 15 13 12 11 10 9 9 9 8 8 7 8 8 8 9 9 10 11 12 13 14 15 17 18 20 21 23 23 24 25 25 24 24 23 22 22 22 22 22 22 23 24 25 27 29 30 31 32 33 33 33 34 35 35 33 33
2 2 2 3 6 1 5 5 3 6 5 4 5 4 6 8 11 16 15 8 8 16 24 28 26 23 24 27 28 29 28 26 25 25 25 25 25 23 21 19 17 15 13 12 12 11 10 9 9 8 7 7 7 8 9 9 10 10 10 11 11 12 13 15 16 18 20 22 23 24 25 25 26 26 26 25 25 24 24 24 24 24 24 24 26 28 29 30 31 32 33 34 34 34 36 36 35
1 1 2 3 7 2 4 6 5 7 7 6 7 7 9 9 9 16 21 20 19 16 15 20 23 20 22 26 28 29 28 26 26 25 25 26 25 23 21 18 16 15 14 14 12 11 10 8 8 7 6 7 8 9 10 11 11 12 12 12 12 12 13 14 16 18 20 21 23 24 25 26 26 26 27 27 26 26 26 26 26 26 27 27 27 27 29 30 31 32 32 33 34 34 35 36 37
2 1 1 4 6 4 5 8 8 9 10 10 7 7 10 11 7 9 21 30 28 22 15 14 20 21 23 27 28 27 26 26 25 25 25 25 25 23 20 18 16 16 15 13 11 9 8 7 7 7 7 8 9 10 11 12 13 13 13 13 13 13 14 16 17 18 20 21 23 24 24 25 26 26 27 27 27 26 26 26 26 27 28 29 29 29 30 30 31 33 33 33 34 34 35 36 37
3 2 2 3 5 6 7 8 10 12 13 12 8 8 10 13 8 6 20 29 27 28 22 16 19 23 26 29 28 26 26 25 25 26 26 26 24 22 20 18 16 15 13 11 9 7 7 6 7 7 9 10 11 12 13 13 13 13 13 13 14 14 16 17 18 19 20 22 23 24 25 25 26 27 28 28 29 28 27 26 26 26 27 29 30 31 31 32 33 33 34 35 35 35 35 35 37
1 1 3 3 5 6 8 10 11 12 13 10 8 7 9 10 6 11 24 26 23 25 22 18 20 24 28 30 28 26 26 26 26 26 26 26 24 22 20 17 16 14 12 10 8 7 6 7 7 8 9 10 11 12 13 13 13 13 13 13 14 15 16 17 18 20 21 22 24 25 25 26 26 27 27 29 30 30 30 29 29 28 28 29 30 32 32 34 35 35 35 36 37 38 38 36 37
2 3 5 6 7 8 8 10 11 11 11 9 8 6 6 4 1 8 16 17 21 22 20 20 22 26 29 29 28 27 26 26 26 26 26 26 24 21 19 17 16 14 12 10 8 7 7 7 7 8 9 10 11 12 12 13 13 13 13 13 14 15 16 17 18 19 21 23 24 25 26 27 27 28 28 28 29 30 31 32 32 32 31 31 31 32 33 34 36 37 38 38 38 39 40 40 39
3 4 5 7 7 6 6 7 9 7 6 9 7 5 4 3 3 10 11 11 18 21 21 23 25 28 29 29 28 27 26 26 26 27 27 25 23 20 18 17 16 14 11 10 8 8 7 7 7 8 9 10 11 11 12 12 12 12 13 13 14 15 16 16 17 19 20 22 24 26 27 27 28 29 30 30 30 31 31 32 33 34 35 34 34 34 34 34 34 36 37 39 40 40 41 41 41
2 2 3 7 7 3 2 2 5 5 3 5 3 4 5 5 10 14 9 11 17 20 23 25 27 29 29 29 29 28 27 27 28 28 26 24 22 20 18 17 15 13 11 9 8 7 7 7 7 8 9 10 10 11 11 11 12 12 13 13 14 15 16 16 17 19 20 22 24 26 26 27 28 29 30 31 31 32 32 33 33 34 35 36 36 37 37 37 36 35 34 36 38 41 43 43 43
1 2 2 4 7 3 2 1 2 5 3 4 4 4 7 8 16 17 10 13 17 20 24 26 29 30 30 30 30 30 29 29 30 28 26 24 22 21 19 17 15 13 11 9 8 8 8 7 7 7 8 8 9 10 11 11 12 13 14 14 15 15 16 17 17 18 20 21 24 26 26 27 28 29 30 30 31 32 33 34 34 35 35 37 37 38 39 39 40 39 36 35 35 37 40 43 44
1 1 2 2 3 4 5 1 4 4 4 5 5 3 9 8 12 14 12 16 19 23 26 28 30 31 32 32 32 32 31 31 30 27 27 25 23 21 19 17 15 13 11 10 9 9 8 7 6 6 6 7 9 9 11 12 13 13 14 15 15 16 17 17 18 18 20 21 24 26 27 27 28 28 30 31 32 33 34 35 36 37 37 38 39 39 40 40 41 41 40 39 37 36 36 39 41
3 1 3 3 0 5 8 3 6 5 3 5 5 2 10 10 8 10 13 17 21 24 26 29 31 33 34 34 34 34 33 31 29 28 27 26 24 22 19 17 15 13 11 10 10 9 8 6 4 5 6 7 9 10 11 12 13 14 15 16 16 17 17 17 18 19 20 21 23 26 26 27 27 28 29 31 32 34 35 36 37 38 40 41 41 42 42 42 42 42 41 39 40 40 38 38 38
4 1 3 3 1 4 7 3 4 4 1 3 4 3 7 8 5 6 12 18 22 24 25 29 33 34 35 36 36 35 34 32 31 31 30 27 25 22 20 18 15 14 12 10 10 9 7 5 4 5 6 8 9 11 13 13 14 15 15 16 17 17 18 19 19 20 21 21 23 25 26 26 27 27 29 30 32 34 35 37 38 39 41 42 43 43 43 44 44 44 43 40 40 42 42 41 40
4 2 2 4 3 3 4 5 2 1 2 4 4 5 11 13 8 8 13 18 22 24 26 31 33 35 36 37 37 37 37 36 35 35 32 29 27 24 22 19 17 14 12 11 10 9 7 5 5 6 7 9 11 13 14 14 15 16 16 17 17 18 18 19 20 20 21 21 23 25 26 26 27 28 29 30 31 33 34 35 37 38 40 42 43 44 44 45 44 45 45 42 39 39 41 43 43
4 3 2 4 3 4 5 5 3 2 1 5 4 6 14 18 15 15 18 20 24 28 30 31 31 32 35 37 39 40 40 40 39 36 33 31 28 26 24 22 19 16 13 12 11 10 8 6 6 7 8 10 12 14 14 15 15 16 16 17 17 18 18 19 19 20 20 22 24 25 26 27 27 29 30 31 31 32 33 34 35 36 38 40 41 43 43 44 45 44 45 45 42 39 39 40 41
5 5 4 4 5 6 6 6 4 1 2 7 7 9 13 18 17 15 17 21 27 29 27 27 27 29 33 37 40 42 43 44 41 36 33 32 30 28 26 23 21 17 15 13 12 11 9 8 8 8 9 10 12 14 14 15 15 16 16 17 17 18 18 19 19 21 22 23 25 26 27 28 28 29 30 31 32 32 34 34 35 35 36 38 39 41 42 43 44 45 45 45 45 44 41 37 37
4 4 4 5 6 7 6 4 4 1 1 9 9 9 13 17 18 17 15 17 22 22 20 25 28 30 34 37 41 44 45 45 40 36 34 33 32 30 27 25 22 19 16 14 13 12 10 9 8 8 9 11 12 13 14 15 16 17 18 18 18 18 19 19 19 21 22 23 25 27 28 29 30 30 31 32 32 33 34 34 35 36 36 38 39 40 42 43 44 45 46 45 44 45 45 39 34
3 4 4 5 5 8 8 3 4 2 2 6 7 7 12 16 17 19 15 11 15 19 20 26 29 31 35 37 41 43 42 42 40 38 38 36 35 32 30 27 23 20 17 16 15 13 11 9 8 8 9 11 12 13 14 16 17 18 19 19 20 20 20 20 20 21 22 23 24 26 28 29 30 31 31 32 32 33 34 35 36 37 38 39 41 42 43 44 44 45 45 46 45 44 45 40 33
3 2 2 4 4 5 7 4 4 2 2 5 8 8 14 17 17 20 19 13 17 22 24 30 31 31 35 37 39 39 38 40 41 42 41 40 37 34 31 28 24 22 19 17 16 14 12 10 9 9 10 11 12 13 14 16 17 18 19 20 21 21 21 22 22 23 24 24 25 27 29 30 31 31 31 32 33 34 35 36 37 38 39 40 42 43 44 44 44 45 45 45 45 45 45 41 35
3 3 2 5 3 2 5 4 5 3 2 4 8 11 13 14 14 17 18 14 18 24 27 32 31 31 35 36 36 37 39 42 43 44 44 42 39 36 33 30 26 24 22 19 17 15 13 11 10 9 10 11 12 13 14 16 17 18 19 20 21 21 22 23 24 24 26 27 28 29 30 31 33 33 33 33 33 34 35 37 37 38 38 39 41 43 45 45 44 45 45 43 42 44 46 43 37
3 5 6 6 5 5 6 3 5 4 3 2 6 11 10 7 8 10 7 4 10 17 22 28 30 31 33 32 33 36 39 41 43 45 46 44 42 39 35 31 28 26 24 21 18 15 14 12 11 10 10 11 12 13 14 16 17 18 19 20 21 22 23 24 26 26 27 29 31 31 32 33 34 35 35 34 35 36 37 38 39 39 40 40 41 43 45 46 46 46 45 43 40 40 43 45 42
4 5 9 9 8 7 5 5 6 4 4 4 5 7 8 1 3 8 4 3 6 8 12 21 26 26 28 32 34 36 37 39 41 43 46 46 44 41 36 33 31 29 25 21 18 16 14 12 12 11 11 11 12 14 15 16 18 19 20 21 23 24 25 25 26 28 29 30 31 32 33 34 35 36 35 35 35 35 37 38 39 41 42 42 42 43 45 46 47 48 47 45 42 38 38 43 46
3 4 6 6 4 1 2 4 4 2 3 4 4 1 9 4 3 8 6 4 9 9 9 17 23 23 26 33 35 35 36 38 39 41 44 46 46 43 39 36 33 30 26 22 19 17 14 14 13 12 12 12 13 14 15 17 18 19 21 23 24 26 27 27 27 28 30 31 32 33 34 34 35 35 35 35 34 35 36 37 39 40 42 43 44 44 45 46 47 48 49 47 45 40 34 37 45
3 4 4 5 5 3 2 3 1 4 2 4 1 4 8 9 6 6 4 5 11 13 12 14 19 24 28 32 33 34 37 38 38 40 43 46 47 45 42 38 34 30 27 24 20 17 16 15 14 13 12 13 14 15 16 17 19 20 21 23 24 25 27 28 29 30 31 33 34 35 36 36 36 36 36 35 35 35 37 38 39 40 41 43 44 45 45 46 46 48 49 48 46 43 37 37 42
5 5 5 6 5 4 4 4 2 2 3 5 5 5 4 10 6 2 2 4 9 12 14 12 14 21 26 27 29 31 33 35 37 39 41 45 47 46 42 37 33 30 28 24 21 18 17 16 15 14 14 14 15 16 16 17 19 21 22 24 25 25 27 29 30 31 32 34 36 36 37 38 38 38 37 37 37 37 38 39 40 40 41 43 44 45 45 46 47 48 49 48 46 45 40 37 40
4 6 5 5 5 4 4 3 1 2 3 7 7 7 4 8 4 3 3 3 8 10 11 10 13 20 21 20 23 25 28 31 34 37 39 42 45 45 40 36 33 31 28 24 21 19 18 16 15 15 15 15 15 16 16 17 19 21 22 24 26 27 28 30 31 32 33 35 37 38 39 39 40 40 40 39 39 38 39 39 40 41 42 43 44 45 46 46 48 49 49 47 45 43 39 34 35
5 6 4 5 4 4 4 1 3 2 6 9 7 12 7 6 3 5 4 5 7 7 7 7 11 18 18 17 19 20 24 28 31 34 36 38 41 41 39 37 35 31 28 24 22 20 18 17 16 16 15 15 16 16 17 17 19 21 23 25 26 28 29 30 32 33 35 36 38 39 40 41 41 42 42 42 41 40 39 39 40 41 42 44 44 44 46 47 49 50 49 46 42 40 38 35 34
5 4 4 4 4 3 4 4 4 0 7 6 4 8 8 7 6 4 5 7 6 7 6 7 9 15 16 14 15 16 20 25 28 32 34 37 39 40 40 39 35 31 28 25 22 20 19 18 17 16 16 16 16 17 17 17 19 21 23 25 26 28 29 30 33 35 36 37 39 40 41 42 43 43 43 44 43 41 41 40 40 42 43 44 44 45 46 47 49 50 49 45 42 40 38 38 36
4 4 4 3 4 4 4 3 1 3 7 3 2 4 5 11 11 8 10 10 8 9 9 11 12 15 16 14 14 15 18 23 27 30 33 37 41 43 43 40 35 31 28 25 22 21 19 18 17 16 16 17 17 17 17 17 19 21 23 25 26 27 28 30 32 35 36 38 40 41 42 43 44 45 45 45 44 42 42 41 41 42 43 43 45 46 47 48 48 48 47 45 44 42 40 40 37
5 5 4 3 1 1 3 4 2 6 6 2 3 3 4 9 8 11 16 15 14 15 16 19 20 19 18 16 15 16 19 23 27 29 33 38 42 44 43 39 35 31 28 24 22 21 20 19 18 17 16 17 17 17 17 18 19 21 23 24 25 27 28 30 32 34 36 38 40 41 42 44 45 46 46 45 45 44 43 43 42 42 42 43 45 46 47 48 47 46 46 45 45 44 41 40 37
4 4 5 5 5 4 5 4 4 7 6 3 3 2 4 5 4 7 10 12 15 16 19 22 22 20 17 17 17 19 21 24 26 29 33 37 41 43 42 38 35 31 27 25 23 21 21 19 18 17 16 16 16 16 17 17 19 20 22 23 24 26 28 30 32 34 37 38 40 41 42 43 45 46 46 45 45 44 44 43 43 43 43 43 45 46 47 48 46 45 45 45 45 44 41 39 37
2 3 5 3 4 5 2 3 4 2 5 4 3 4 6 3 4 6 4 7 11 11 15 19 18 16 13 15 19 21 23 25 27 30 33 37 40 42 41 38 34 31 28 25 23 22 21 19 18 17 16 16 15 16 16 17 19 20 21 22 24 26 28 31 33 35 36 38 39 41 42 43 44 45 45 45 44 44 43 44 44 44 44 44 45 45 46 47 46 46 45 45 45 42 38 37 37
2 3 4 4 4 5 2 3 1 4 3 6 2 6 8 3 5 5 3 6 9 7 11 14 13 12 12 18 22 22 24 26 27 30 33 36 40 41 40 37 34 32 28 26 24 23 21 18 17 16 15 15 14 15 16 17 19 19 20 21 23 26 29 31 34 35 36 38 39 41 42 43 44 44 45 45 44 44 43 43 44 44 44 44 46 46 46 47 47 46 45 44 46 41 36 39 40
5 3 5 3 2 4 3 1 3 3 3 6 4 9 13 9 6 2 3 6 9 9 10 9 8 9 14 23 26 24 25 25 26 29 32 36 39 41 40 37 34 32 29 27 25 23 20 17 16 15 14 13 14 15 16 17 18 19 20 22 24 26 29 31 33 35 37 38 40 41 42 44 44 44 44 44 44 44 44 44 44 45 45 45 46 46 47 48 47 46 45 43 45 41 39 42 41
5 3 2 3 3 2 2 2 2 2 3 6 9 12 13 9 6 4 5 9 9 10 10 7 7 10 18 26 27 25 25 26 27 30 33 36 40 41 41 38 35 32 29 27 25 22 19 16 15 14 13 13 14 15 16 17 18 18 20 22 25 27 29 31 34 36 37 39 41 42 43 44 44 44 44 44 44 44 44 44 44 45 45 45 46 46 47 49 47 47 45 43 43 41 40 41 37
3 0 1 1 2 4 3 3 3 3 3 6 10 13 12 6 7 7 10 10 10 9 9 8 9 15 23 27 26 26 27 28 29 31 33 37 40 42 40 37 34 32 29 27 24 20 17 15 14 13 12 13 14 15 16 16 17 19 21 23 25 27 30 32 34 36 39 41 42 43 44 45 45 45 44 44 44 44 45 45 46 46 46 46 47 48 48 48 47 46 44 43 42 40 38 38 36
4 3 3 2 1 2 1 2 3 4 4 4 4 11 15 6 7 8 10 9 10 10 9 8 10 19 26 26 25 26 27 28 29 31 33 37 40 41 39 36 34 32 29 26 22 19 16 14 13 12 12 13 14 16 16 16 17 19 22 23 25 28 30 33 35 37 40 42 43 45 45 46 46 45 45 45 44 44 45 46 47 47 47 47 48 49 48 47 48 46 44 45 43 39 37 37 37
7 8 8 8 6 4 1 5 3 3 4 5 4 8 18 6 7 7 8 8 9 10 10 8 11 21 26 24 25 26 27 29 29 31 33 36 40 41 39 37 35 33 29 24 21 18 16 14 13 12 13 14 15 15 15 16 18 20 22 24 27 29 32 34 36 38 41 43 44 46 46 46 47 46 45 45 45 45 45 46 48 48 48 48 49 50 48 46 47 46 45 46 42 38 36 36 37
Wind_Direction
99 107 111 111 98 123 165 146 122 6 67 85 346 102 226 220 218 186 176 40 75 16 72 113 114 120 118 110 115 99 70 85 144 126 156 154 139 292 319 312 301 293 290 296 297 296 298 299 286 255 238 235 234 228 230 244 249 246 245 242 249 255 267 267 259 271 282 288 290 297 304 302 302 299 296 296 294 291 283 274 276 278 281 289 296 303 304 303 304 301 297 294 295 295 294 293 292
111 125 121 115 86 146 217 92 85 349 48 64 286 166 230 290 47 184 207 159 136 114 98 102 100 96 98 104 105 82 62 71 91 98 116 146 160 294 319 321 317 309 304 303 299 300 300 295 284 256 240 241 240 241 243 243 245 243 234 229 233 240 252 260 260 260 263 271 273 277 285 289 295 299 296 290 289 291 285 276 276 283 287 285 286 292 293 295 299 298 296 295 295 297 298 296 294
109 133 138 137 89 110 149 52 75 75 58 75 268 243 249 152 127 124 200 147 130 118 104 102 93 84 92 94 79 65 91 102 101 102 107 157 187 251 309 320 320 319 319 316 313 316 325 336 328 282 258 249 245 245 248 251 252 251 246 240 238 237 232 229 245 259 264 267 268 268 273 275 279 290 291 282 278 282 281 281 284 287 290 288 290 290 288 291 295 295 295 294 294 296 297 297 295
108 125 135 161 122 89 86 49 124 118 91 200 256 261 241 168 149 101 138 139 132 121 111 110 84 69 93 91 88 90 118 136 133 141 129 153 184 231 300 314 318 326 325 320 323 327 339 357 2 343 293 264 255 251 250 253 254 256 256 252 250 248 242 236 237 249 254 253 264 268 268 269 267 277 281 279 279 279 276 279 283 284 286 284 287 289 287 288 289 291 294 294 292 293 293 294 294
116 95 92 179 147 76 90 76 110 98 197 188 132 252 243 189 146 130 150 154 158 152 143 128 98 106 103 94 110 118 136 146 147 169 161 151 169 217 283 309 325 327 319 320 329 336 349 1 6 10 2 312 266 259 256 255 255 257 259 256 254 253 253 251 250 253 251 249 255 257 259 264 262 264 267 271 276 278 275 275 275 276 282 282 283 286 286 287 285 285 288 290 289 289 287 287 289
116 66 58 118 101 92 116 104 111 100 215 170 116 251 239 202 142 127 145 166 198 203 165 145 135 135 105 87 106 139 147 148 152 167 166 156 166 181 249 326 332 316 314 327 342 352 11 23 25 25 29 31 14 293 266 263 262 261 262 262 259 257 257 258 260 260 259 259 260 258 258 262 261 260 260 262 267 268 269 272 272 274 278 280 282 284 287 288 285 283 283 286 287 285 283 282 281
118 86 61 102 73 47 104 130 160 156 202 163 156 238 231 194 142 131 136 145 183 190 172 160 142 129 103 117 119 147 157 161 162 169 167 159 166 167 201 332 299 292 318 23 46 48 47 50 50 45 43 42 41 41 25 336 293 280 275 273 270 267 265 264 265 266 266 266 266 266 265 264 263 264 264 261 263 264 265 266 267 271 274 273 276 279 281 282 283 283 284 285 286 286 284 281 278
116 167 58 99 42 28 89 106 175 179 216 222 226 220 240 180 153 145 149 152 168 182 159 148 141 116 141 153 149 159 163 172 171 177 172 167 173 173 188 179 226 228 148 118 100 90 85 76 69 60 54 46 41 37 32 29 19 2 330 305 291 282 276 272 271 271 270 270 270 270 269 268 267 268 269 267 265 265 265 263 262 266 266 267 271 274 275 275 277 280 281 281 283 284 284 281 278
73 143 56 83 69 37 55 46 196 216 269 262 248 219 209 171 168 155 143 165 170 162 154 153 150 143 165 158 159 165 170 180 180 182 176 180 185 185 193 189 206 189 155 138 126 113 103 92 81 69 57 46 36 28 20 14 10 9 3 354 340 320 303 290 282 278 275 274 273 272 271 271 270 270 272 272 271 269 267 264 262 263 263 264 267 272 273 272 275 278 279 279 280 281 282 280 277
56 72 110 82 78 45 27 284 223 240 256 262 265 230 149 167 177 171 156 154 160 158 161 175 228 157 158 158 161 169 179 183 183 186 185 189 191 194 200 200 201 179 165 157 143 132 119 104 87 68 56 45 33 24 15 8 1 355 350 345 342 337 331 321 309 299 290 285 280 278 276 275 273 272 272 273 274 273 270 267 266 266 265 264 264 266 268 269 272 276 279 278 278 278 279 279 276
100 45 107 79 75 104 190 208 250 266 269 297 282 246 173 178 178 170 148 137 160 161 169 190 181 151 149 163 174 177 181 184 188 188 189 193 196 204 209 206 198 186 183 173 156 150 137 113 91 58 47 38 27 19 9 3 357 350 345 338 333 327 324 321 317 313 307 301 294 288 285 281 279 276 274 273 274 274 272 272 271 271 269 266 265 263 263 266 267 270 273 273 273 274 274 276 275
175 18 82 85 117 189 200 172 225 275 308 326 255 203 166 175 169 170 157 149 169 169 177 190 179 157 142 176 184 180 182 188 190 191 195 197 204 210 211 204 196 196 195 188 178 174 166 133 65 19 15 15 13 7 358 352 348 345 341 336 330 323 317 313 309 307 304 301 299 296 292 289 287 283 279 275 273 273 273 273 273 273 271 270 268 266 265 266 266 265 268 269 270 270 270 273 275
170 151 91 91 152 172 158 149 221 300 318 270 193 151 155 172 188 192 167 152 170 171 187 194 178 165 152 190 186 184 185 191 191 196 199 200 211 210 205 199 198 203 200 199 199 209 223 261 315 341 347 354 357 353 347 344 343 342 342 338 333 327 319 312 305 301 298 296 295 294 293 291 290 288 285 282 277 274 272 272 271 271 271 271 270 268 268 267 266 265 266 267 269 268 268 271 273
155 159 104 102 126 138 152 143 223 189 249 244 194 179 170 178 208 187 164 151 179 177 188 188 175 172 178 176 188 191 187 190 194 200 203 206 212 205 201 197 200 204 205 209 214 232 244 275 303 322 333 342 344 343 345 344 345 344 345 343 338 334 327 321 312 306 300 295 292 290 290 289 289 287 287 286 284 281 276 273 271 270 269 269 270 268 268 267 268 267 266 267 268 268 268 269 270
134 146 94 108 98 116 179 187 173 161 226 227 185 184 162 161 171 172 169 168 192 188 179 174 174 182 200 190 203 197 188 189 195 201 204 207 207 201 199 200 205 207 210 216 221 240 248 275 295 314 323 332 336 338 344 346 349 350 351 351 350 346 340 335 326 319 311 304 299 294 291 289 289 288 286 286 285 285 284 281 278 275 272 270 269 269 268 267 267 267 267 268 269 270 270 268 268
123 125 72 96 135 188 194 191 139 137 240 223 174 174 146 151 164 171 190 188 189 188 180 175 183 200 222 207 222 200 188 189 195 201 205 207 204 199 200 202 208 209 215 220 226 241 247 275 291 306 312 323 332 339 347 350 352 354 355 356 356 356 354 350 343 334 325 316 310 304 299 295 293 290 288 287 286 286 286 286 285 283 280 276 273 271 270 268 267 267 267 268 270 271 271 269 268
95 72 62 82 160 195 196 177 167 166 231 233 175 175 151 156 178 181 200 198 190 182 184 187 195 213 236 221 222 196 188 191 195 201 205 206 202 199 202 205 209 212 219 224 232 244 251 272 281 291 297 318 336 348 353 356 359 358 359 360 360 359 358 356 352 347 340 333 325 317 311 306 302 297 294 291 289 288 287 287 286 286 285 283 281 278 275 273 271 269 268 268 269 269 269 269 269
54 94 83 98 173 200 191 176 193 171 188 206 188 184 172 176 183 175 173 187 186 183 194 203 205 218 232 221 205 191 190 192 195 202 204 204 202 201 205 209 214 217 222 228 237 244 251 264 269 279 290 321 346 355 359 3 3 4 5 4 2 359 358 356 353 351 348 345 340 333 326 319 314 309 304 300 296 294 292 290 289 288 287 286 285 283 281 278 276 273 271 270 269 269 267 267 268
74 108 81 239 198 213 202 177 196 184 142 194 194 194 195 211 185 175 182 190 179 183 204 212 214 217 218 209 196 190 191 194 198 202 204 203 202 204 208 213 218 222 227 233 238 241 247 256 265 275 291 324 348 357 0 5 5 7 8 4 2 359 356 354 352 350 348 346 343 340 336 331 326 320 315 310 305 302 298 296 293 290 288 287 286 284 283 281 279 276 274 272 270 270 268 266 267
77 89 81 245 218 244 252 214 207 214 276 177 196 206 208 229 192 183 195 185 188 207 205 204 212 211 205 200 193 191 193 196 200 201 202 203 205 208 213 216 220 225 230 234 239 244 251 262 272 281 296 322 344 356 359 2 6 6 5 3 360 357 354 351 349 348 346 344 342 339 337 334 330 326 321 317 312 308 304 301 298 295 291 289 287 285 283 281 279 277 274 272 270 269 269 267 267
11 95 143 233 193 249 260 244 234 230 257 201 203 208 227 226 194 191 180 158 232 230 217 215 223 219 206 199 195 194 195 197 198 199 201 205 210 213 217 220 223 227 232 238 243 248 253 262 270 279 294 314 333 347 355 1 6 5 2 360 356 353 350 347 346 344 343 341 339 338 336 334 331 328 325 322 319 315 312 308 306 304 301 298 294 290 287 284 282 279 276 272 270 268 267 267 267
54 98 213 218 156 207 259 227 235 233 237 215 188 196 228 205 196 203 188 187 238 237 233 230 232 229 216 207 198 195 196 197 199 201 204 209 215 218 220 222 225 229 234 239 241 244 247 253 262 274 290 308 326 338 349 357 360 359 357 354 352 349 345 344 344 341 340 339 338 337 335 333 331 329 328 326 324 322 319 316 313 312 310 309 306 301 297 293 289 285 281 278 273 269 267 266 266
54 349 264 187 170 236 249 205 223 237 225 208 198 216 215 188 217 222 207 222 238 240 249 237 230 226 218 211 201 197 197 198 201 204 207 212 217 219 221 223 226 231 233 235 237 241 248 255 267 280 297 313 328 337 347 352 353 353 351 349 347 344 343 343 342 341 340 339 337 337 335 334 332 331 330 329 328 327 325 322 319 318 317 317 315 312 308 303 299 294 289 284 280 275 270 267 265
109 109 247 178 199 238 213 206 228 238 235 231 223 218 208 198 227 231 221 236 242 241 251 243 229 216 210 208 203 202 201 200 202 204 208 213 218 221 223 225 227 231 232 236 242 250 262 274 288 303 318 327 335 342 347 350 349 347 345 343 341 342 343 342 342 342 341 339 337 336 336 335 334 333 332 331 331 331 330 327 325 322 321 321 320 318 315 311 307 303 299 294 288 282 276 271 268
96 142 224 191 217 222 202 219 235 240 242 242 229 214 219 219 227 246 241 246 244 239 247 247 227 211 207 207 206 204 201 202 203 206 212 216 220 222 224 225 226 230 235 240 249 262 277 291 305 316 323 329 337 343 346 347 345 342 340 339 339 340 341 341 341 341 340 338 337 336 335 335 334 334 333 332 332 332 331 331 330 328 326 324 322 321 320 316 313 309 306 302 298 293 286 279 274
118 189 247 219 231 231 224 236 239 241 242 233 217 224 242 232 245 268 254 250 243 237 240 238 221 209 206 205 205 205 204 204 205 210 216 219 222 223 224 224 225 229 234 240 249 262 275 287 298 309 317 326 335 341 343 343 341 338 337 337 338 339 338 339 339 339 339 337 336 335 335 335 334 334 333 332 331 331 332 331 332 331 330 328 325 324 322 320 317 314 311 307 304 300 295 290 283
297 295 275 250 258 259 245 242 242 244 241 225 211 236 257 206 184 268 254 241 234 231 227 225 216 208 206 205 205 206 208 209 210 215 219 222 223 224 224 222 225 227 231 238 246 255 266 276 289 303 314 323 331 336 339 340 339 336 336 337 337 337 336 336 337 337 337 336 335 334 334 335 335 335 334 333 332 331 331 330 330 330 330 329 328 326 324 322 319 316 314 311 308 304 300 297 292
312 314 286 275 288 273 242 242 239 232 238 229 215 246 258 137 184 251 253 236 227 224 218 216 211 208 207 205 206 207 210 211 214 220 223 226 226 225 225 223 225 227 231 237 243 252 260 273 291 304 314 323 328 333 338 338 338 336 337 337 335 333 332 333 334 335 334 334 334 333 334 335 335 335 334 334 333 332 330 329 329 328 328 327 326 325 324 322 320 318 315 312 309 306 303 299 297
323 29 309 297 347 358 227 263 221 194 227 227 189 279 253 183 228 247 252 233 220 215 214 212 208 207 207 206 208 210 211 212 216 222 224 226 227 225 225 225 225 226 230 235 240 249 260 277 293 303 313 323 329 334 338 338 338 338 337 335 332 331 330 331 332 333 333 333 333 333 334 335 335 334 332 332 331 330 329 328 327 326 326 325 324 324 323 323 321 319 317 312 309 306 303 301 299
305 60 48 315 356 359 212 60 167 183 227 198 124 293 260 218 234 242 241 223 209 205 210 210 208 206 206 207 210 211 212 214 218 221 223 225 226 225 224 224 223 224 229 233 239 249 261 274 286 301 317 325 332 337 339 339 339 338 335 332 331 329 328 330 332 332 332 333 332 332 333 333 333 332 331 330 329 328 327 327 326 326 325 324 324 324 324 324 324 322 320 316 311 306 302 300 298
327 1 44 14 355 289 268 277 158 174 229 191 131 268 264 258 245 239 234 224 210 208 211 212 211 208 209 210 212 214 214 217 220 221 223 225 226 224 222 221 221 224 228 234 243 251 259 268 284 306 323 329 335 339 338 338 336 335 331 329 329 327 327 329 330 331 331 333 332 331 331 332 332 331 330 330 329 329 328 328 328 327 326 325 324 325 324 324 324 323 323 320 315 310 304 299 295
18 343 310 342 344 273 299 287 183 198 222 176 146 241 269 277 267 242 228 219 213 215 218 217 216 214 213 214 215 216 216 218 220 221 223 225 224 222 219 219 221 226 232 238 245 249 254 264 286 308 321 329 334 336 335 334 332 330 328 326 327 326 327 329 330 331 332 332 330 329 330 331 331 331 330 330 329 329 329 329 328 328 326 325 325 325 324 324 323 322 322 321 317 313 308 302 295
5 52 255 276 256 289 316 320 212 217 162 177 200 238 275 279 262 230 216 214 216 218 221 222 222 220 217 217 218 217 217 217 218 220 222 222 221 219 217 220 223 227 235 240 242 243 248 260 281 303 317 326 331 332 333 332 330 328 327 326 326 326 328 329 329 329 329 329 329 329 329 330 330 330 329 328 328 328 327 326 326 325 324 324 323 324 324 324 324 322 321 320 317 313 310 305 300
327 11 259 252 240 264 295 312 315 145 159 221 226 231 258 264 258 241 231 223 218 219 225 227 226 224 221 221 220 220 219 218 220 221 221 220 219 218 218 221 224 228 235 238 239 241 245 257 276 300 314 324 330 331 332 331 330 329 328 327 325 326 328 327 326 326 327 328 329 329 328 329 328 328 326 325 325 324 323 322 322 322 321 320 320 321 323 323 323 322 320 318 315 310 308 305 301
256 256 252 277 269 247 252 273 301 73 230 239 217 238 258 267 269 255 245 233 222 225 230 231 230 226 224 223 222 223 222 221 224 224 221 220 219 218 220 223 225 228 234 238 238 239 242 255 274 297 313 323 328 328 330 329 329 328 327 326 324 325 326 325 323 323 325 327 327 327 326 326 325 325 324 322 322 321 319 319 319 319 318 317 316 316 318 319 321 321 319 317 313 308 304 303 300
206 211 194 234 262 262 241 238 261 10 297 264 237 237 258 270 274 262 246 231 226 232 234 234 234 229 227 226 226 225 224 225 226 223 221 220 220 221 222 224 226 228 233 238 237 238 243 254 274 297 311 321 325 325 326 325 326 326 325 324 323 324 324 324 323 322 324 325 325 324 323 323 322 322 321 320 320 320 319 318 318 318 316 315 314 313 314 316 318 320 320 317 313 309 306 302 299
146 150 181 227 239 267 262 240 285 18 247 269 254 242 256 265 270 272 257 229 226 232 233 235 233 230 229 228 229 228 227 229 225 221 220 221 221 222 223 224 225 227 231 236 237 238 243 255 276 296 308 318 321 320 322 322 324 325 325 324 324 325 324 323 321 320 321 322 321 321 320 319 319 320 320 319 319 319 319 319 319 318 318 317 316 316 316 318 320 321 320 316 312 309 306 303 299
116 166 215 261 237 258 272 267 317 359 171 269 282 269 262 260 266 273 261 223 227 229 226 237 235 231 233 232 232 232 229 229 224 220 220 220 220 221 222 223 223 228 232 236 238 239 244 256 274 292 305 312 316 317 319 321 322 323 323 323 323 323 322 320 318 317 318 318 317 316 316 316 316 317 318 319 320 320 320 321 321 321 321 320 319 319 319 320 321 321 320 316 311 306 303 300 297
115 149 187 271 251 272 292 320 353 355 178 271 299 289 270 264 262 266 259 238 246 244 237 246 243 235 237 236 235 233 229 228 223 220 219 218 220 220 221 222 223 228 231 235 239 240 245 255 270 286 300 306 311 314 316 319 320 320 320 320 321 321 320 319 318 318 317 316 316 315 315 315 315 317 319 320 321 321 321 321 322 321 321 320 319 318 318 318 319 319 319 316 310 305 300 297 293
155 157 186 257 267 297 284 311 341 307 228 271 289 281 268 263 256 261 266 255 253 255 252 254 250 243 245 244 242 237 231 229 224 220 218 218 219 219 221 221 223 227 229 235 240 242 248 255 269 283 294 300 305 308 312 315 316 316 317 317 317 317 318 318 317 318 317 317 317 317 317 317 318 319 321 322 322 321 321 321 320 319 318 318 316 315 314 316 317 317 317 314 307 301 298 294 289
251 206 207 242 255 238 239 294 329 315 319 322 309 294 274 253 242 254 288 295 257 256 256 257 251 248 250 249 246 242 237 233 228 221 218 218 219 220 221 221 224 227 230 235 241 243 248 255 268 280 288 294 299 304 307 310 312 313 314 314 314 314 315 317 317 318 317 317 317 317 318 318 319 320 322 323 323 322 322 321 320 318 317 317 315 314 314 315 316 315 315 312 305 296 293 290 284
298 236 214 229 240 250 274 336 346 349 331 329 10 324 287 258 222 254 287 349 276 255 250 258 257 250 247 246 245 242 240 237 232 226 221 220 221 220 220 221 224 227 230 236 240 242 247 254 264 275 283 288 294 299 303 307 310 312 313 314 315 315 317 318 317 317 317 316 316 316 316 317 318 319 320 322 322 321 320 319 319 318 317 317 316 315 314 315 316 315 313 311 306 296 287 284 281
301 256 206 208 201 234 316 4 356 304 262 302 49 336 275 272 198 247 260 276 278 264 246 258 261 254 247 248 247 242 239 236 231 227 224 222 221 220 220 221 224 227 230 235 239 241 243 250 260 269 277 282 288 294 300 305 309 311 313 315 317 318 318 319 318 317 318 317 316 316 315 316 317 317 318 319 319 318 317 317 317 316 316 316 316 315 314 315 314 313 312 309 305 298 286 278 277
242 239 128 121 119 149 181 92 351 247 268 303 202 172 274 277 240 252 252 246 274 274 265 264 259 254 251 251 251 245 242 238 231 227 224 222 222 222 222 222 225 228 230 233 236 238 241 247 257 265 271 277 284 292 299 304 308 310 312 313 315 317 317 318 319 318 319 318 317 317 317 317 318 318 318 318 318 318 316 316 316 315 314 314 314 314 313 314 313 311 309 306 302 297 286 275 273
238 203 123 109 116 146 147 119 218 274 2 295 223 153 277 273 251 327 27 211 255 265 262 264 258 255 254 254 255 250 246 241 235 231 228 225 223 222 223 224 226 227 228 232 234 235 239 245 254 262 266 273 283 292 299 303 305 308 310 311 313 315 315 316 317 318 319 319 318 318 318 318 318 318 318 318 318 317 316 316 314 313 313 313 312 312 312 312 311 309 307 304 300 294 288 279 272
195 146 106 75 74 85 91 110 173 28 326 266 222 167 234 275 228 121 75 207 237 251 256 261 264 262 261 261 261 255 247 241 238 235 232 229 225 223 223 224 225 225 226 230 233 234 237 243 251 260 265 272 283 291 296 299 302 305 307 310 312 315 315 316 317 319 319 319 318 318 318 318 318 318 317 317 317 316 315 314 313 312 312 312 311 312 312 311 310 308 306 303 298 293 288 280 274
136 110 64 33 36 50 52 53 74 38 277 268 227 181 192 284 252 162 172 210 206 215 246 265 269 270 270 271 268 258 248 243 238 234 230 228 225 222 221 222 223 223 225 229 232 234 237 243 250 259 266 272 282 289 293 297 300 303 306 309 312 314 315 317 319 320 319 319 318 318 318 317 317 317 316 316 316 316 314 313 312 311 310 310 311 311 310 310 309 306 304 301 296 290 282 276 274
112 86 54 12 335 11 20 354 43 62 255 273 243 184 185 246 248 194 231 254 213 196 227 248 259 271 278 282 274 261 251 245 238 232 226 222 220 217 218 220 221 222 225 228 231 234 239 245 251 260 268 273 280 286 290 296 299 303 306 309 311 313 316 319 320 320 320 319 318 318 318 317 316 316 316 315 315 315 314 312 311 310 309 309 309 310 309 308 307 305 303 299 294 288 278 275 276
98 93 78 41 325 352 347 309 49 225 250 265 174 168 216 247 246 230 241 255 240 217 223 239 254 271 281 284 277 265 254 245 237 230 225 220 217 216 218 219 219 222 225 228 231 235 241 248 254 262 269 273 279 284 289 295 300 303 306 308 311 314 317 320 320 320 320 319 319 318 318 317 317 316 315 315 315 315 313 312 311 309 309 309 309 310 309 308 306 303 301 297 293 288 279 275 275
147 145 131 146 139 22 277 274 278 268 271 251 164 154 260 269 261 230 227 234 237 237 240 248 258 268 276 279 274 267 256 246 238 231 226 221 218 218 219 219 219 221 224 227 231 236 243 249 256 264 269 272 278 284 290 296 300 304 306 309 312 316 319 321 320 319 319 318 318 318 318 317 316 316 316 315 315 315 313 312 311 309 309 309 309 309 308 307 304 301 299 296 293 289 283 278 273
175 155 137 158 153 172 228 234 246 276 294 251 186 183 235 260 282 220 213 232 242 245 248 252 260 267 273 275 267 259 252 243 237 231 227 224 221 220 219 219 219 220 223 227 231 237 243 250 257 264 269 273 278 284 290 296 300 303 306 310 314 318 320 320 319 318 318 318 318 317 318 317 316 316 316 316 315 314 313 312 310 310 310 309 309 309 307 305 302 300 297 294 291 288 284 280 274
207 125 119 181 183 170 213 218 201 271 316 275 198 221 231 218 266 244 210 253 254 251 254 253 259 265 268 267 258 250 246 240 234 230 227 225 222 220 219 218 218 219 222 227 232 238 245 250 258 264 269 273 278 285 292 297 301 304 307 312 317 319 319 318 317 317 317 318 318 318 318 317 317 316 316 315 314 313 312 311 310 310 310 309 308 308 306 304 301 298 296 293 290 287 281 277 273
168 136 175 216 183 133 135 267 8 61 299 274 227 252 273 302 275 250 188 254 258 252 254 252 254 257 254 256 253 246 243 240 235 232 229 225 222 219 219 218 218 219 223 228 233 240 246 251 257 263 269 274 280 287 293 297 300 304 309 314 318 318 318 317 317 318 319 319 320 320 319 317 317 316 315 314 313 312 311 311 310 310 310 309 308 307 305 302 300 298 296 291 289 286 277 272 271
131 183 212 199 125 94 104 246 342 31 258 274 269 262 278 286 282 292 136 233 254 251 248 245 245 243 242 249 250 245 244 241 237 234 230 226 222 220 219 217 218 220 223 229 235 240 246 250 255 261 266 274 283 289 294 297 300 306 312 316 318 318 318 319 319 320 321 321 321 320 318 317 316 315 313 313 312 311 311 311 310 309 310 309 307 306 304 301 298 297 295 290 287 285 277 275 276
136 199 219 120 142 167 111 151 244 256 240 274 280 279 277 255 240 254 221 217 232 245 242 230 228 228 234 245 247 242 241 237 234 232 228 225 222 219 218 217 217 219 223 229 235 240 245 249 254 260 266 275 283 289 292 297 303 310 316 317 318 319 320 321 321 321 322 321 320 319 317 316 315 314 313 312 311 311 311 310 309 308 309 308 306 305 303 301 298 296 294 288 286 284 279 278 276
79 199 325 37 160 176 167 154 179 197 214 269 288 293 281 229 184 230 236 209 203 226 235 223 222 226 231 239 243 239 236 235 234 232 228 225 221 219 218 216 217 221 225 230 234 239 243 247 254 260 267 275 282 287 290 297 306 313 317 318 320 321 322 322 322 322 322 321 319 318 317 316 315 314 313 312 311 311 310 309 309 308 308 307 306 305 302 300 296 295 292 286 285 283 276 274 271
149 182 204 228 171 116 209 223 139 148 197 241 276 284 275 238 155 209 226 202 197 208 219 218 219 230 234 238 241 240 238 238 237 235 231 226 221 218 216 215 218 222 225 229 233 237 241 246 252 258 266 273 279 285 292 302 311 315 318 321 322 323 324 323 323 323 321 320 319 317 317 315 314 314 313 312 311 311 310 310 309 308 308 306 305 304 302 297 294 293 289 286 287 282 273 271 270
175 193 194 193 175 122 211 248 212 162 201 207 178 265 275 260 142 195 208 190 200 205 212 219 218 228 235 238 240 240 241 242 240 236 233 227 221 216 214 215 218 222 225 228 231 235 238 242 249 255 263 271 279 287 298 307 313 317 320 323 324 324 324 324 324 323 321 320 319 317 316 315 314 314 313 312 312 311 311 311 310 308 307 306 303 302 300 296 293 291 289 288 287 280 272 270 271